Location: *
(34.8620°S, 39.3380°E)
Time: 10:44:07
(UTC+00:00)

Cosmos 1943 - Pass Details

Date: 27 July 2021
Orbit: 832 x 851 km, 71.0° (Epoch: 22 September)

Event Time Altitude Azimuth Distance (km) Brightness Sun altitude
Rises 03:10:52 0° 319° (NW) 3,396 6.1 -14.5°
Reaches altitude 10° 03:13:29 10° 311° (NW) 2,466 5.3 -13.9°
Maximum altitude 03:18:43 38° 243° (WSW) 1,270 3.6 -12.9°
Drops below altitude 10° 03:24:01 10° 175° (S) 2,480 5.5 -11.8°
Sets 03:26:39 0° 167° (SSE) 3,419 6.3 -11.3°
